| time (UTC) | temp C | wind direction | speed KPH | gust KPH | rain 1hr cm | rain 24hr cm | rain mn cm | humidity % | barometer mb |
| 20260902225247 | 37 | 15 | 4.8 | 6.4 | 0.00 | 0.36 | 0.00 | 43 | 1011.6 |
| 20260902224246 | 38 | 126 | 6.4 | 9.7 | 0.00 | 0.36 | 0.00 | 42 | 1011.7 |
| 20260902223306 | 38 | 175 | 3.2 | 9.7 | 0.00 | 0.36 | 0.00 | 44 | 1011.8 |
| 20260902222326 | 37 | 147 | 9.7 | 12.9 | 0.00 | 0.36 | 0.00 | 45 | 1011.9 |
| 20260902221246 | 37 | 160 | 11.3 | 14.5 | 0.00 | 0.36 | 0.00 | 46 | 1012.0 |
| 20260902220246 | 36 | 80 | 6.4 | 9.7 | 0.00 | 0.36 | 0.00 | 47 | 1011.9 |
| 20260902215246 | 37 | 120 | 4.8 | 8.0 | 0.00 | 0.36 | 0.00 | 46 | 1012.2 |
| 20260902214246 | 37 | 196 | 4.8 | 8.0 | 0.00 | 0.36 | 0.00 | 47 | 1012.2 |
| 20260902213247 | 37 | 56 | 3.2 | 3.2 | 0.00 | 0.36 | 0.00 | 47 | 1012.3 |
| 20260902212247 | 37 | 171 | 8.0 | 12.9 | 0.00 | 0.36 | 0.00 | 47 | 1012.5 |
| 20260902211246 | 37 | 0.0 | 0.0 | 0.00 | 0.36 | 0.00 | 48 | 1012.6 | |
| 20260902210246 | 36 | 0.0 | 0.0 | 0.00 | 0.36 | 0.00 | 49 | 1012.7 | |
| 20260902205246 | 37 | 144 | 8.0 | 14.5 | 0.00 | 0.36 | 0.00 | 48 | 1012.9 |
| 20260902204246 | 37 | 154 | 14.5 | 20.9 | 0.00 | 0.36 | 0.00 | 48 | 1012.8 |
| 20260902203246 | 37 | 112 | 1.6 | 1.6 | 0.00 | 0.36 | 0.00 | 47 | 1013.1 |
| 20260902202246 | 37 | 155 | 3.2 | 4.8 | 0.00 | 0.36 | 0.00 | 50 | 1013.2 |
| 20260902201246 | 36 | 273 | 1.6 | 3.2 | 0.00 | 0.36 | 0.00 | 49 | 1013.4 |
| 20260902200246 | 37 | 192 | 4.8 | 8.0 | 0.00 | 0.36 | 0.00 | 49 | 1013.5 |
| 20260902195246 | 36 | 225 | 1.6 | 1.6 | 0.00 | 0.36 | 0.00 | 49 | 1013.8 |
| 20260902194246 | 36 | 171 | 4.8 | 6.4 | 0.00 | 0.36 | 0.00 | 50 | 1014.0 |
| 20260902193246 | 36 | 327 | 1.6 | 1.6 | 0.00 | 0.36 | 0.00 | 51 | 1014.1 |
| 20260902192246 | 35 | 251 | 1.6 | 3.2 | 0.00 | 0.36 | 0.00 | 53 | 1014.3 |
| 20260902191249 | 35 | 135 | 11.3 | 12.9 | 0.00 | 0.36 | 0.00 | 54 | 1014.5 |
| 20260902190246 | 35 | 126 | 8.0 | 9.7 | 0.00 | 0.36 | 0.00 | 53 | 1014.6 |
| 20260902185246 | 35 | 132 | 8.0 | 9.7 | 0.00 | 0.36 | 0.00 | 53 | 1015.0 |
| 20260902184246 | 35 | 179 | 8.0 | 12.9 | 0.00 | 0.36 | 0.00 | 54 | 1015.1 |
| 20260902183327 | 34 | 143 | 1.6 | 8.0 | 0.00 | 0.36 | 0.00 | 56 | 1015.2 |
| 20260902182307 | 34 | 129 | 11.3 | 16.1 | 0.00 | 0.36 | 0.00 | 56 | 1015.3 |
| 20260902181246 | 34 | 127 | 8.0 | 11.3 | 0.00 | 0.36 | 0.00 | 56 | 1015.5 |
| 20260902180306 | 33 | 139 | 11.3 | 14.5 | 0.00 | 0.36 | 0.00 | 57 | 1015.6 |
| 20260902175247 | 33 | 149 | 6.4 | 19.3 | 0.00 | 0.36 | 0.00 | 57 | 1015.7 |
| 20260902174307 | 33 | 157 | 9.7 | 16.1 | 0.00 | 0.36 | 0.00 | 59 | 1015.7 |
| 20260902173246 | 33 | 133 | 11.3 | 14.5 | 0.00 | 0.36 | 0.00 | 59 | 1015.8 |
| 20260902172247 | 33 | 123 | 12.9 | 19.3 | 0.00 | 0.36 | 0.00 | 59 | 1015.9 |
| 20260902171246 | 32 | 127 | 12.9 | 20.9 | 0.00 | 0.36 | 0.00 | 59 | 1015.9 |
| 20260902170247 | 32 | 126 | 9.7 | 11.3 | 0.00 | 0.36 | 0.00 | 63 | 1015.9 |
| 20260902165247 | 31 | 129 | 8.0 | 9.7 | 0.00 | 0.36 | 0.00 | 65 | 1016.0 |
| 20260902164247 | 31 | 128 | 9.7 | 14.5 | 0.00 | 0.36 | 0.00 | 65 | 1016.1 |
| 20260902163246 | 31 | 137 | 9.7 | 12.9 | 0.00 | 0.36 | 0.00 | 65 | 1016.1 |
| 20260902162246 | 31 | 112 | 9.7 | 12.9 | 0.00 | 0.36 | 0.00 | 64 | 1016.0 |
| 20260902161246 | 31 | 137 | 11.3 | 14.5 | 0.00 | 0.36 | 0.00 | 66 | 1016.0 |
| 20260902160246 | 30 | 128 | 12.9 | 16.1 | 0.00 | 0.36 | 0.00 | 65 | 1016.0 |
| 20260902155246 | 30 | 132 | 8.0 | 11.3 | 0.00 | 0.36 | 0.00 | 66 | 1015.9 |
| 20260902154308 | 30 | 130 | 4.8 | 12.9 | 0.00 | 0.36 | 0.00 | 70 | 1015.8 |
| 20260902153247 | 30 | 122 | 8.0 | 8.0 | 0.00 | 0.36 | 0.00 | 74 | 1015.8 |